Location: Bidwell Hollow
(37.7387°N, 90.1707°W)
Time: 02:03:29
(UTC+00:00)

Vanguard 3 - Pass Details

Date: 10 May 2026
Orbit: 507 x 3204 km, 33.3° (Epoch: 6 June)

Event Time Altitude Azimuth Distance (km) Brightness Sun altitude
Rises 02:59:13 0° 281° (WNW) 6,102 12.6 -20.7°
Reaches altitude 10° 03:04:22 10° 274° (W) 4,631 11.6 -21.4°
Maximum altitude 03:14:16 32° 218° (SW) 2,290 9.3 -22.7°
Enters shadow 03:17:07 26° 184° (S) 2,267 9.0 -23.1°
Drops below altitude 10° 03:20:28 10° 157° (SSE) 2,847 - -23.5°
Sets 03:22:53 0° 146° (SSE) 3,518 - -23.8°
